Simultaneous Nadir Overpasses (SNOs) Predictions

Prediction of SNOs between GOES-16 and NOAA-19 Satellite Orbit:

Table of predicted SNOs for the next 14.0 days since TLE Epoch: 11/16/2019
Index Date Time (GOES-16) GOES-16 Lat,Lon NOAA-19 Lat,Lon Distance(km) Time Diff (sec)
1 11/16/2019 22:27:10 -0.02, -75.19 -0.46, -76.96 202.82 80
2 11/17/2019 22:18:12 -0.02, -75.20 0.23, -74.13 122.23 80
3 11/18/2019 22:06:33 -0.02, -75.20 0.87, -71.28 447.32 80
4 11/20/2019 10:39:17 0.02, -75.21 0.91, -79.11 444.79 80
5 11/21/2019 10:27:37 0.02, -75.22 0.29, -76.26 119.43 80
6 11/22/2019 10:13:19 0.02, -75.23 -0.40, -73.42 206.17 80
7 11/24/2019 22:37:03 -0.03, -75.24 -0.77, -78.40 361.15 80
8 11/25/2019 22:25:23 -0.03, -75.25 -0.13, -75.55 35.05 80
9 11/26/2019 22:11:05 -0.04, -75.26 0.56, -72.71 291.43 80
10 11/29/2019 10:34:51 0.05, -75.31 0.58, -77.70 272.56 80




NCC Satellite Simultaneous Nadir Overpasses (SNOs) Prediction Service
